Weather Roundup
Issued by NWS Chicago, IL

Home | Current Version | Previous Version | Text Only | Print | Product List | Glossary On
Versions: 1 2 3 4 5 6 7 8 9 10 11 12 13 14 15 16 17 18 19 20 21 22 23 24 25 26 27 28 29 30 31 32 33 34 35 36 37 38 39 40 41 42 43 44 45 46 47 48 49 50
000
NZUS59 KLOT 200409
HRRLOT

CHICAGO AREA WEATHER ROUNDUP
NATIONAL WEATHER SERVICE CHICAGO/ROMEOVILLE IL
1000 PM CST MON FEB 19 2018

NOTE: "FAIR" INDICATES FEW OR NO CLOUDS BELOW 12,000 FEET WITH NO
SIGNIFICANT WEATHER AND/OR OBSTRUCTIONS TO VISIBILITY.

* THESE STATIONS ARE NOT UNDER NWS QUALITY CONTROL. THEY ALSO MAY NOT
  REPORT WEATHER SUCH AS PRECIPITATION OR FOG.

ILZ005-006-012>014-019>023-200500-
NORTHEAST ILLINOIS

CITY           SKY/WX    TMP DP  RH WIND       PRES   REMARKS
OHARE          LGT RAIN  59  56  89 S20G26    29.80S
MIDWAY         LGT RAIN  59  58  96 S17       29.82S FOG
AURORA         LGT RAIN  53  53 100 S15       29.81R FOG
LANSING*       TSTM      57  57 100 S16G22    29.87S
JOLIET*        CLOUDY    60  59  97 S14       29.84S
WAUKEGAN       LGT RAIN  56  56 100 SW15      29.78F FOG
DUPAGE AIRPORT CLOUDY    55  55 100 S13       29.81R FOG
WHEELING       LGT RAIN  59  57  93 S15       29.82R
KANKAKEE*      CLOUDY    59  58  97 S16G23    29.85S
MORRIS*        LGT RAIN  57  56  95 S17       29.82R
LEWIS AIRPORT* CLOUDY    57  56  97 S21       29.83S
NORTHERLY ISL    N/A     58  55  90 S15         N/A
$$

WIZ051-052-058>065-066-070>072-200500-
SOUTHEAST WISCONSIN

CITY           SKY/WX    TMP DP  RH WIND       PRES   REMARKS
MILWAUKEE      LGT RAIN  37  37 100 CALM      29.78F FOG
KENOSHA*       LGT RAIN  39  37  92 S5        29.78F VSB 1/2
RACINE*        LGT RAIN  36  36 100 CALM      29.80F VSB 1/4
BURLINGTON     FOG       36  35  97 CALM      29.77F VSB 1/4
WAUKESHA       DRIZZLE   34  32  93 E3        29.78F
WEST BEND      LGT RAIN  34  34 100 NE3       29.79F
$$

INZ001>003-010>013-019-020-200500-
NORTHWEST INDIANA

CITY           SKY/WX    TMP DP  RH WIND       PRES   REMARKS
GARY*          RAIN      61  59  94 S14G29    29.87S
MICHIGAN CITY* NOT AVBL
RENSSELAER*    NOT AVBL
VALPARAISO     LGT RAIN  60  58  92 S14       29.90R FOG
$$

LMZ740>746-200500-
SOUTHERN LAKE MICHIGAN

STATION/POSITION TIME  SKY/WX   TEMP WIND        PRES    VSBY
                                AIR  DIR/SP/G
                 (UTC)          (F)  (DEG/KT/KT) (MB)    (MI)
HARRISON CRIB    0340            57  200/ 32/ 35   N/A
BURNHAM HARBOR   0400            58  180/ 17/ 24   N/A
CALUMET HARBOR   0342            57  200/ 13/ 20 1010.7R
BURNS HARBOR     0340            58  200/ 20/ 26 1011.9R
MICHIGAN CITY    0340            58  170/ 17/ 21   N/A
$$

ABBREVIATIONS USED IN REMARKS
   TC - TEMPERATURE IN CELSIUS
  WCI - WIND CHILL INDEX
   HX - HEAT INDEX
  VSB - VISIBILITY
$$



USA.gov is the U.S. government's official web portal to all federal, state and local government web resources and services.